Regional Weather Roundup
Issued by NWS

Home | Current Version | Previous Version | Graphics & Text | Print | Product List | Glossary On
Versions: 1 2 3 4 5 6 7 8 9 10 11 12 13 14 15 16 17 18 19 20 21 22 23 24 25 26 27 28 29 30 31 32 33 34 35 36 37 38 39 40 41 42 43 44 45 46 47 48 49 50
000
ASUS43 KMPX 292101
RWRMN
WEATHER ROUNDUP FOR MINNESOTA
NATIONAL WEATHER SERVICE TWIN CITIES/CHANHASSEN MN
400 PM CDT TUE JUL 29 2014


NOTE: "FAIR" INDICATES FEW OR NO CLOUDS BELOW 12,000 FEET WITH NO
SIGNIFICANT WEATHER AND/OR OBSTRUCTIONS TO VISIBILITY. N/A MEANS
CURRENT SKY AND/OR WEATHER CONDITIONS ARE NOT AVAILABLE.

MNZ060>063-068>070-292200-
   Twin Cities Metro

CITY           SKY/WX    TMP DP  RH WIND       PRES   REMARKS
TWIN CITIES    MOSUNNY   80  55  42 W14       30.06F
ST PAUL        PTSUNNY   78  56  46 NW12      30.05F
CRYSTAL        PTSUNNY   79  55  43 NW9G17    30.05F
BLAINE         PTSUNNY   79  57  47 NW12G17   30.06F
LAKEVILLE      MOSUNNY   77  55  47 W7G16     30.08F
EDEN PRAIRIE   MOSUNNY   78  54  43 NW12      30.07F
SOUTH ST PAUL  MOSUNNY   80  55  42 W13       30.05F
LAKE ELMO      PTSUNNY   77  59  53 NW9       30.07F
$$
MNZ001>005-007-008-013>017-022>024-027-028-292200-
   Northwest Minnesota

CITY           SKY/WX    TMP DP  RH WIND       PRES   REMARKS
BEMIDJI        MOSUNNY   73  54  50 N10G20    30.11F
HALLOCK        SUNNY     79  54  41 W9        30.12S
ROSEAU         MOSUNNY   75  57  53 NW12      30.10S
WARROAD        SUNNY     75  59  57 NW7G16    30.09F
THIEF RVR FALL SUNNY     73  54  49 NW10      30.13S
CROOKSTON      MOSUNNY   75  55  50 NW8       30.14S
FOSSTON        MOSUNNY   73  57  56 NW13      30.13F
DETROIT LAKES  MOSUNNY   75  52  43 N12G25    30.15F
MOORHEAD       MOSUNNY   77  54  44 N8        30.13F
PARK RAPIDS    MOSUNNY   75  51  43 W12G20    30.11F
$$
MNZ006-009>011-018-025>026-292200-
   North Central Minnesota

CITY           SKY/WX    TMP DP  RH WIND       PRES   REMARKS
BAUDETTE       SUNNY     77  55  46 NW13      30.08F
FLAG ISLAND    MOSUNNY   75  54  46 N8        30.06F
INTL FALLS     TSTM      66  58  75 N10       30.06R
WASKISH        PTSUNNY   75  57  53 CALM      30.08F
BIG FORK       SUNNY     75  52  43 W9        30.06F
LONGVILLE      SUNNY     75  55  50 W9        30.09F
GRAND RAPIDS   SUNNY     75  54  46 NW16      30.06F
CRANE LAKE     SUNNY     73  57  56 N7        30.02F
ORR            MOSUNNY   75  52  43 NW13G18   30.01S
COOK           MOSUNNY   73  57  56 NW10G20   30.03F
$$
MNZ012-019>021-037-292200-
   Northeast Minnesota

CITY           SKY/WX    TMP DP  RH WIND       PRES   REMARKS
DULUTH         MOSUNNY   78  53  41 W17G24    30.02S
ELY            MOSUNNY   72  54  53 N8G24     30.01S
HIBBING        CLOUDY    74  53  48 N12G26    30.05R
EVELETH        LGT RAIN  63  54  72 W6        30.05R
DULUTH HARBOR  SUNNY     79  57  47 W16       30.00R
TWO HARBORS    TSTM      61  54  77 N8G18     30.04R
SILVER BAY     PTSUNNY   66  61  82 W6        30.00F
GRAND MARAIS     N/A     55  51  86 W7        29.97F
G MARAIS ARPRT MOSUNNY   70  54  56 NW6       30.00F
$$
MNZ029>031-032-039>041-046>048-054>057-064-292200-
   West Central Minnesota

CITY           SKY/WX    TMP DP  RH WIND       PRES   REMARKS
FERGUS FALLS   MOSUNNY   73  50  43 NW8       30.13F
WHEATON        SUNNY     72  55  56 W3        30.16F
MORRIS         MOSUNNY   75  54  46 NW7       30.14F
ALEXANDRIA     MOSUNNY   76  53  44 NW12      30.15F
ELBOW LAKE     FAIR      74  55  51 NW6       30.14F
WADENA         MOSUNNY   73  55  53 NW9       30.12F
GLENWOOD       MOSUNNY   77  54  44 W10G17    30.14F
APPLETON       MOSUNNY   79  54  41 NW8       30.14F
BENSON         MOSUNNY   75  55  50 N10       30.14F
ORTONVILLE     SUNNY     75  52  43 NW10      30.15F
MADISON        SUNNY     79  55  44 NW8       30.15F
WILLMAR        FAIR      77  52  41 W9        30.14F
$$
MNZ033>034-036-042>043-049>051-058-059-292200-
   Central Minnesota

CITY           SKY/WX    TMP DP  RH WIND       PRES   REMARKS
ST CLOUD       MOSUNNY   79  53  40 NW9       30.08F
SAUK CENTRE    FAIR      75  53  45 NW13G18   30.12F
PAYNESVILLE    MOSUNNY   76  50  40 W10       30.12S
AITKIN         SUNNY     79  57  47 NW9       30.06F
PINE RIVER     MOSUNNY   75  55  50 NW9G16    30.12F
BRAINERD       MOSUNNY   76  52  43 NW12      30.09F
STAPLES        SUNNY     75  50  41 NW10G17   30.11F
LONG PRAIRIE   FAIR      73  54  49 NW12G17   30.12F
LITTLE FALLS   MOSUNNY   77  50  38 W14       30.09F
LITCHFIELD     MOSUNNY   79  55  44 W12       30.11F
BUFFALO        MOSUNNY   78  53  41 W10       30.09F
MAPLE LAKE     MOSUNNY   78  58  50 NW7       30.10S
$$
MNZ037-044-045-052-053-292200-
   East Central Minnesota

CITY           SKY/WX    TMP DP  RH WIND       PRES   REMARKS
PRINCETON      MOSUNNY   81  57  44 NW9G17    30.07F
MORA           SUNNY     75  55  50 NW10      30.08S
CAMBRIDGE      MOSUNNY   81  61  50 NW8       30.05F
RUSH CITY      SUNNY     77  54  43 NW10      30.06S
MOOSE LAKE     SUNNY     77  54  44 NW12G21   30.02F
HINCKLEY       FAIR      77  57  50 NW9       30.05F
CLOQUET        MOSUNNY   75  52  43 W15G21    30.03F
MCGREGOR       MOSUNNY   75  54  46 NW10G20   30.06F
$$
MNZ071>073-080-081-089-090-097-098-292200-
   Southwest Minnesota

CITY           SKY/WX    TMP DP  RH WIND       PRES   REMARKS
MONTEVIDEO     PTSUNNY   79  57  47 N7        30.15F
GRANITE FALLS  MOSUNNY   76  56  50 NW9       30.16F
CANBY          MOSUNNY   74  51  44 N5        30.17S
MARSHALL       SUNNY     75  50  41 NW10      30.15F
REDWOOD FALLS  SUNNY     77  52  41 NW7       30.13F
OLIVIA         MOSUNNY   77  54  44 NW10G17   30.13F
PIPESTONE      MOSUNNY   73  48  40 N8        30.18F
WINDOM         MOSUNNY   75  54  46 NW8       30.16S
WORTHINGTON    PTSUNNY   73  54  49 NW10      30.18F
JACKSON        MOSUNNY   72  52  49 NW6       30.16F
TRACY          SUNNY     73  55  53 NW6       30.16F
SLAYTON        MOSUNNY   74  49  41 CALM      30.18F
$$
MNZ065>067-074>077-082>085-091>093-292200-
   South Central Minnesota

CITY           SKY/WX    TMP DP  RH WIND       PRES   REMARKS
MANKATO        MOSUNNY   75  52  43 NW12      30.11F
NEW ULM        MOSUNNY   75  54  46 NW9       30.12F
ST JAMES       MOSUNNY   75  52  43 W6G21     30.14F
FAIRMONT       SUNNY     73  46  38 NW12      30.14F
GLENCOE        SUNNY     78  50  37 W12       30.10F
FARIBAULT      SUNNY     81  48  32 W10       30.10F
OWATONNA       MOSUNNY   77  52  41 NW12      30.10F
WASECA         SUNNY     77  52  41 NW8       30.12F
ALBERT LEA     MOSUNNY   77  52  41 NW7       30.11F
$$
MNZ078>079-086>088-094>096-292200-
   Southeast Minnesota

CITY           SKY/WX    TMP DP  RH WIND       PRES   REMARKS
ROCHESTER      SUNNY     77  57  50 W9        30.10F
RED WING       SUNNY     82  52  34 W9        30.04F
STANTON        PTSUNNY   79  55  42 W14       30.06F
DODGE CENTER   SUNNY     75  55  50 W13G18    30.10F
WINONA         MOSUNNY   79  54  41 W9        30.04F
AUSTIN         SUNNY     75  54  46 NW10G16   30.10F
PRESTON        SUNNY     74  61  62 NW9G17    30.09F
$$
ABBREVIATIONS USED IN REMARKS
   TC - TEMPERATURES IN CELSIUS
  WCI - WIND CHILL INDEX
   HX - HEAT INDEX
  VSB - VISIBILITY
$$


USA.gov is the U.S. government's official web portal to all federal, state and local government web resources and services.